[[{"header":{"parameterUnit":"m.s-1","parameterCategory":1,"la1":30.2991,"la2":30.254,"lo1":-89.0895,"lo2":-89.0444,"dy":0.0017,"dx":0.0017,"nx":28,"ny":28,"refTime":"2023-10-27T09:00:00:Z","depth":0,"parameterNumber":2,"parameterNumberName":"U-component_of_WINDS"},"data":[0,0,0,0,0,0,0,0,0,0,0,0,0,0,0,0,0,0,0,0,0,0,0,0,0,0,0,0,0,0,0,0,0,0,0,0,0,0,0,0,0,0,0,0,0,0,0,0,0,0,0,0,0,0,0,0,0,0,-3.6519,-3.652,0,-3.6576,-3.6577,-3.6577,-3.6501,-3.6499,-3.6496,-3.6493,-3.6552,-3.6556,-3.656,0,0,0,0,0,0,0,0,0,0,0,0,0,-3.6347,-3.6351,-3.6519,-3.652,-3.6521,-3.6576,-3.6577,-3.6577,-3.6502,-3.6499,-3.6495,-3.6492,-3.655,-3.6555,-3.656,0,0,0,0,0,0,0,0,0,0,0,0,0,-3.6415,-3.6352,-3.6519,-3.649,-3.6488,-3.6576,-3.6577,-3.6578,-3.6503,-3.6499,-3.6494,-3.6491,-3.6549,-3.6555,-3.6561,-3.668,0,0,-3.6579,-3.6582,0,0,0,0,0,0,0,0,-3.6411,-3.6421,-3.6493,-3.6492,-3.649,-3.6527,-3.6537,-3.6612,-3.6504,-3.6497,-3.6493,-3.6489,-3.6547,-3.6553,-3.6572,-3.6683,-3.6686,-3.658,-3.6584,-3.6586,-3.6588,0,0,0,0,0,0,0,-3.6407,-3.6419,-3.6542,-3.6495,-3.6492,-3.6474,-3.6479,-3.6551,-3.6544,-3.6497,-3.6492,-3.65,-3.6545,-3.6567,-3.6573,-3.6686,-3.658,-3.6585,-3.6589,-3.6591,-3.6899,-3.6903,0,0,0,0,0,0,-3.6405,-3.6415,-3.654,-3.6543,-3.644,-3.6481,-3.6486,-3.652,-3.6543,-3.6543,-3.6503,-3.6496,-3.6558,-3.6566,-3.6575,-3.6716,-3.6586,-3.6592,-3.6595,-3.6895,-3.69,-3.6905,0,0,0,0,0,0,-3.6402,-3.6417,-3.6538,-3.6478,-3.6492,-3.6488,-3.6526,-3.6523,-3.6544,-3.6548,-3.6546,-3.6526,-3.6555,-3.6566,-3.6655,-3.6717,-3.6595,-3.66,-3.6889,-3.6896,-3.6902,-3.7,0,0,0,0,0,0,-3.6397,-3.6416,-3.6461,-3.6479,-3.6495,-3.6616,-3.653,-3.6527,-3.6555,-3.6546,-3.6569,-3.6569,-3.6553,-3.6646,-3.6661,-3.6723,-3.6605,-3.6884,-3.6892,-3.69,-3.6991,-3.7009,-3.7025,0,0,0,0,0,-3.6391,-3.6486,-3.6464,-3.6479,-3.6551,-3.662,-3.6629,-3.6609,-3.656,-3.6606,-3.6608,-3.6568,-3.6709,-3.6656,-3.6672,-3.6737,-3.6879,-3.689,-3.69,-3.6984,-3.7006,-3.7025,0,0,0,0,0,0,-3.6475,-3.6488,-3.6463,-3.6567,-3.6593,-3.6607,-3.6663,-3.6633,-3.6673,-3.6663,-3.6637,-3.6643,-3.6737,-3.6746,-3.6687,-3.6855,-3.6786,-3.68,-3.6845,-3.6866,-3.6882,-3.6877,-3.661,0,0,0,0,0,-3.6506,-3.656,-3.6569,-3.666,-3.6674,-3.6667,-3.6696,-3.6679,-3.6704,-3.6715,-3.6724,-3.6751,-3.6801,-3.6834,-3.6881,-3.6994,-3.6997,-3.7047,-3.7064,-3.7077,-3.7089,-3.7149,-3.7171,-3.6938,-3.6938,-3.6938,0,0,-3.6569,-3.6583,-3.6619,-3.6677,-3.6695,-3.6752,-3.6676,-3.674,-3.6782,-3.6724,-3.6808,-3.6816,-3.6845,-3.6946,-3.6991,-3.6956,-3.7155,-3.709,-3.7101,-3.7105,-3.7162,-3.7184,-3.7204,-3.6945,-3.6944,-3.6943,0,0,-3.6713,-3.673,-3.6807,-3.6827,-3.6856,-3.6851,-3.687,-3.6889,-3.6892,-3.6976,-3.6934,-3.6985,-3.7072,-3.7094,-3.7117,-3.7273,-3.7237,-3.7289,-3.7376,-3.7435,-3.7453,-3.7469,-3.7524,-3.7544,-3.7301,-3.7301,-3.7302,0,-3.6788,-3.6872,-3.685,-3.6917,-3.6944,-3.6896,-3.6974,-3.6995,-3.7038,-3.7057,-3.7019,-3.7128,-3.7144,-3.7249,-3.7288,-3.7308,-3.7329,-3.7285,-3.7453,-3.7468,-3.7483,-3.7535,-3.7556,-3.7307,-3.7307,-3.7306,-3.7305,0,-3.6962,-3.7022,-3.7081,-3.7123,-3.7157,-3.7229,-3.7219,-3.7257,-3.7238,-3.7237,-3.7324,-3.7342,-3.7391,-3.7416,-3.7397,-3.752,-3.7497,-3.7457,-3.7386,-3.7512,-3.756,-3.7579,-3.7316,-3.7314,-3.7312,-3.731,0,0,-3.7156,-3.7188,-3.721,-3.7229,-3.7259,-3.7304,-3.7376,-3.7424,-3.7456,-3.7489,-3.7547,-3.7624,-3.7587,-3.7613,-3.7597,-3.765,-3.7771,-3.7602,-3.7602,-3.7631,-3.7906,-3.7935,-3.7958,-3.7749,-3.7753,-3.7756,-3.7903,0,-3.7299,-3.7421,-3.7405,-3.7522,-3.7577,-3.7534,-3.7596,-3.7621,-3.7624,-3.7671,-3.7674,-3.7728,-3.7675,-3.7691,-3.7741,-3.7746,-3.7826,-3.7735,-3.7803,-3.7805,-3.7794,-3.7983,-3.8014,-3.8151,-3.7922,-3.7925,-3.7928,0,-3.7481,-3.752,-3.7643,-3.7665,-3.7687,-3.7743,-3.7787,-3.7833,-3.7862,-3.786,-3.7891,-3.7866,-3.7938,-3.787,-3.7968,-3.7907,-3.7935,-3.7942,-3.7947,-3.795,-3.7872,-3.799,-3.8195,-3.8215,-3.7957,-3.7955,-3.7953,0,-3.7608,-3.7692,-3.7776,-3.7794,-3.7823,-3.7863,-3.7877,-3.7902,-3.7933,-3.7972,-3.7991,-3.8039,-3.8064,-3.8102,-3.8092,-3.8043,-3.8193,-3.8123,-3.8193,-3.8193,-3.8223,-3.8221,-3.8433,-3.8246,-3.8245,-3.8245,-3.8245,0,-3.7768,-3.7844,-3.7834,-3.7885,-3.797,-3.7952,-3.8037,-3.8046,-3.8069,-3.8121,-3.8089,-3.8139,-3.8123,-3.8174,-3.8166,-3.8249,-3.8261,-3.8262,-3.8258,-3.8263,-3.8263,-3.8278,-3.8267,-3.8251,-3.8249,-3.8248,-3.8247,0,-3.7922,-3.7919,-3.8007,-3.8028,-3.8036,-3.8097,-3.8115,-3.8164,-3.8165,-3.8233,-3.8248,-3.825,-3.8307,-3.8301,-3.8366,-3.8361,-3.8463,-3.8449,-3.8453,-3.8449,-3.8518,-3.8511,-3.8745,-3.8775,-3.8571,-3.8573,-3.8574,0,-3.8022,-3.808,-3.8108,-3.8141,-3.8158,-3.8212,-3.8243,-3.823,-3.8264,-3.8303,-3.8347,-3.8402,-3.8444,-3.8538,-3.8546,-3.8595,-3.8581,-3.866,-3.8588,-3.8591,-3.858,-3.8575,-3.8581,-3.8673,-3.8676,-3.8678,-3.8679,0,-3.82,-3.8196,-3.8243,-3.829,-3.8329,-3.8365,-3.8398,-3.8427,-3.8417,-3.8458,-3.8516,-3.8549,-3.8616,-3.8671,-3.8718,-3.8733,-3.8705,-3.8703,-3.8721,-3.8724,-3.8723,-3.8723,-3.8489,-3.8696,-3.8694,-3.8693,-3.8692,-3.8692,-3.8329,-3.8379,-3.8406,-3.846,-3.8483,-3.8516,-3.8562,-3.8571,-3.8619,-3.8672,-3.8662,-3.8728,-3.8757,-3.8818,-3.8838,-3.889,-3.8861,-3.8888,-3.8894,-3.89,-3.8907,-3.8718,-3.8899,-3.8898,-3.8898,-3.8897,-3.8897,0,-3.8504,-3.852,-3.857,-3.8617,-3.866,-3.8631,-3.8667,-3.8704,-3.8762,-3.8792,-3.8835,-3.8903,-3.8957,-3.897,-3.9021,-3.906,-3.9049,-3.9074,-3.9069,-3.9073,-3.8931,-3.8909,-3.9083,-3.9083,-3.9083,-3.9083,-3.9083,-3.9083,-3.8599,-3.8681,-3.8681,-3.8775,-3.8791,-3.8855,-3.8878,-3.8907,-3.8931,-3.9008,-3.9053,-3.9061,-3.9085,-3.9138,-3.9187,-3.9189,-3.9209,-3.9239,-3.9236,-3.9102,-3.9083,-3.9065,-3.9044,-3.9244,-3.9244,-3.9374,-3.9375,-3.9376]},{"header":{"parameterUnit":"m.s-1","parameterCategory":1,"la1":30.2991,"la2":30.254,"lo1":-89.0895,"lo2":-89.0444,"dy":0.0017,"dx":0.0017,"nx":28,"ny":28,"refTime":"2023-10-27T09:00:00:Z","depth":0,"parameterNumber":3,"parameterNumberName":"V-component_of_WINDS"},"data":[0,0,0,0,0,0,0,0,0,0,0,0,0,0,0,0,0,0,0,0,0,0,0,0,0,0,0,0,0,0,0,0,0,0,0,0,0,0,0,0,0,0,0,0,0,0,0,0,0,0,0,0,0,0,0,0,0,0,1.568,1.568,0,1.572,1.5721,1.5721,1.5729,1.5728,1.5728,1.5728,1.5766,1.5767,1.5768,0,0,0,0,0,0,0,0,0,0,0,0,0,1.5607,1.5608,1.568,1.568,1.5681,1.572,1.5721,1.5721,1.5729,1.5728,1.5728,1.5728,1.5765,1.5767,1.5769,0,0,0,0,0,0,0,0,0,0,0,0,0,1.5642,1.5609,1.568,1.5689,1.5691,1.572,1.5721,1.5721,1.5729,1.5728,1.5728,1.5727,1.5765,1.5767,1.5769,1.579,0,0,1.5775,1.5776,0,0,0,0,0,0,0,0,1.564,1.5645,1.5688,1.5689,1.569,1.5719,1.5709,1.5744,1.5729,1.5714,1.5728,1.5727,1.575,1.5754,1.5762,1.5792,1.5794,1.5775,1.5776,1.5777,1.5778,0,0,0,0,0,0,0,1.5638,1.5643,1.5696,1.5688,1.569,1.5691,1.5695,1.5716,1.5734,1.5716,1.5716,1.5721,1.5751,1.576,1.5763,1.5794,1.5775,1.5777,1.5778,1.5779,1.5845,1.5845,0,0,0,0,0,0,1.5634,1.5641,1.5694,1.5697,1.5664,1.5693,1.5698,1.571,1.5734,1.5738,1.5721,1.5721,1.5757,1.5761,1.5764,1.5792,1.5777,1.5779,1.578,1.5844,1.5845,1.5845,0,0,0,0,0,0,1.5632,1.5639,1.5693,1.5669,1.5676,1.5694,1.5708,1.5711,1.572,1.5739,1.5742,1.5727,1.5757,1.5762,1.5784,1.5793,1.578,1.5782,1.5843,1.5844,1.5845,1.5847,0,0,0,0,0,0,1.563,1.5638,1.5647,1.5669,1.5677,1.5713,1.5709,1.5712,1.5724,1.5724,1.5745,1.5748,1.5757,1.5781,1.5786,1.5796,1.5783,1.5843,1.5844,1.5845,1.5846,1.5847,1.5849,0,0,0,0,0,1.5627,1.5645,1.5647,1.5654,1.5689,1.5713,1.5718,1.5728,1.5725,1.5734,1.5746,1.5747,1.5791,1.5784,1.5789,1.5799,1.5842,1.5844,1.5845,1.5845,1.5847,1.5849,0,0,0,0,0,0,1.5621,1.5648,1.5651,1.5676,1.5693,1.5715,1.5726,1.573,1.5747,1.5746,1.5758,1.5762,1.5784,1.5794,1.5785,1.5822,1.5817,1.5819,1.5815,1.5817,1.5818,1.5816,1.5785,0,0,0,0,0,1.5623,1.5642,1.5663,1.5683,1.5692,1.5707,1.5718,1.5725,1.5742,1.5749,1.5762,1.5778,1.5795,1.5807,1.5823,1.5847,1.5852,1.5857,1.5858,1.586,1.5862,1.5875,1.5878,1.585,1.585,1.585,0,0,1.5627,1.5643,1.5654,1.5683,1.5696,1.5714,1.5713,1.5732,1.5746,1.5751,1.5774,1.5784,1.5803,1.5826,1.5837,1.5835,1.5871,1.5861,1.5862,1.5864,1.5877,1.588,1.5882,1.5851,1.585,1.585,0,0,1.5643,1.5657,1.5676,1.569,1.5711,1.5722,1.5726,1.5748,1.5755,1.5779,1.5784,1.5799,1.5829,1.5842,1.5852,1.5874,1.5877,1.5879,1.5887,1.59,1.5903,1.5905,1.5913,1.5916,1.5881,1.5881,1.5881,0,1.5644,1.5673,1.5685,1.5704,1.5717,1.5724,1.5743,1.5756,1.5781,1.5789,1.5786,1.5824,1.5837,1.5864,1.5869,1.5877,1.5883,1.5877,1.5901,1.5904,1.5906,1.5914,1.5917,1.5881,1.5881,1.5881,1.5881,0,1.5674,1.5694,1.5706,1.5732,1.5746,1.5765,1.5779,1.5791,1.5797,1.5807,1.5831,1.5847,1.5867,1.5874,1.5879,1.5902,1.59,1.5899,1.5894,1.5908,1.5916,1.5919,1.5882,1.5882,1.5881,1.5881,0,0,1.5687,1.572,1.5725,1.5737,1.5761,1.5776,1.5795,1.5816,1.5827,1.5844,1.586,1.5885,1.5885,1.5897,1.5904,1.5915,1.5933,1.5913,1.5914,1.5917,1.5959,1.596,1.5963,1.5934,1.5935,1.5935,1.5958,0,1.5707,1.5743,1.5755,1.5784,1.5803,1.581,1.5827,1.5843,1.5853,1.587,1.5881,1.5899,1.5897,1.5904,1.5916,1.5928,1.5941,1.5926,1.5949,1.595,1.5945,1.5967,1.5968,1.5989,1.5961,1.5961,1.5962,0,1.5734,1.5754,1.5785,1.5808,1.5816,1.5831,1.5852,1.5868,1.5886,1.5893,1.5907,1.5913,1.5933,1.5926,1.5954,1.5943,1.5953,1.596,1.5961,1.5964,1.5957,1.5971,1.5996,1.5999,1.5966,1.5966,1.5966,0,1.5742,1.5775,1.5799,1.5809,1.5836,1.5846,1.5857,1.5875,1.5888,1.5906,1.5914,1.5933,1.5944,1.5958,1.5969,1.5964,1.5996,1.599,1.6002,1.6002,1.6009,1.6008,1.6035,1.6014,1.6014,1.6014,1.6014,0,1.5763,1.5782,1.5803,1.5818,1.5839,1.5852,1.5873,1.5885,1.5901,1.5917,1.5924,1.5939,1.5952,1.5969,1.5977,1.5999,1.6004,1.6009,1.6012,1.6009,1.6009,1.6016,1.6015,1.6015,1.6015,1.6014,1.6014,0,1.5775,1.579,1.5816,1.584,1.5846,1.5861,1.5881,1.5895,1.5906,1.5927,1.5932,1.5949,1.5969,1.5981,1.6006,1.6012,1.6036,1.6037,1.603,1.6032,1.6043,1.6042,1.6076,1.6081,1.6056,1.6056,1.6056,0,1.5788,1.5804,1.5829,1.5841,1.5853,1.5872,1.5886,1.5898,1.5912,1.5934,1.5945,1.5966,1.5984,1.6015,1.6029,1.6048,1.605,1.6061,1.6053,1.6051,1.6051,1.6051,1.6052,1.6062,1.6063,1.6063,1.6063,0,1.581,1.5816,1.5836,1.5858,1.5873,1.5891,1.5908,1.5918,1.5933,1.5948,1.5969,1.5983,1.6009,1.6029,1.605,1.6061,1.6065,1.6065,1.6069,1.6067,1.6063,1.6066,1.6035,1.6065,1.6064,1.6064,1.6064,1.6064,1.5823,1.5838,1.5858,1.5879,1.5894,1.591,1.5925,1.5938,1.5957,1.598,1.5986,1.6009,1.6027,1.6055,1.6066,1.6083,1.6082,1.6087,1.6088,1.609,1.609,1.606,1.6087,1.6087,1.6087,1.6087,1.6087,0,1.5846,1.586,1.5879,1.5904,1.5921,1.5924,1.5943,1.5957,1.5977,1.5994,1.6011,1.6036,1.6056,1.6072,1.6092,1.6103,1.6105,1.6108,1.6107,1.611,1.609,1.6085,1.6106,1.6106,1.6106,1.6106,1.6106,1.6106,1.586,1.5885,1.5894,1.5925,1.5939,1.5962,1.5973,1.5988,1.6002,1.6029,1.6046,1.6057,1.6073,1.6095,1.6113,1.6117,1.6125,1.6127,1.6132,1.6113,1.6111,1.6109,1.6105,1.6129,1.6129,1.615,1.615,1.615]}]]